Location: Kershaw
(34.5481°N, 80.5823°W)
Time: 12:32:25
(UTC+00:00)

A-11 Canister half - Pass Details

Date: 03 October 2022
Orbit: 1524 x 1685 km, 47.3° (Epoch: 25 November)

Event Time Altitude Azimuth Distance (km) Brightness Sun altitude
Rises 03:48:47 0° 303° (WNW) 4,749 12.1 -53.9°
Reaches altitude 10° 03:51:54 10° 299° (WNW) 3,783 11.4 -54.3°
Enters shadow 03:54:44 22° 292° (WNW) 2,962 10.7 -54.6°
